Location: Newark
(35.6799°N, 139.7636°E)
Time: 16:31:36
(UTC+00:00)

deb Explorer IX - Visible Passes

Search period start: 10 December 2019 00:00
Search period end: 20 December 2019 00:00
Orbit: 546 x 1105 km, 38.8° (Epoch: 09 December)

Date Brightness Start Highest point End Pass type
(mag) Time Alt. Az. Time Alt. Az. Time Alt. Az.
10 Dec ? 07:53:49 10° WSW 07:59:51 81° NNW 08:06:50 10° ENE visible
10 Dec ? 09:41:06 10° W 09:47:39 69° N 09:48:23 64° NE visible
10 Dec ? 11:28:25 10° WNW 11:29:45 17° WNW 11:29:45 17° WNW visible
11 Dec ? 09:19:05 10° W 09:25:30 69° N 09:27:32 47° ENE visible
11 Dec ? 11:06:20 10° WNW 11:08:54 25° WNW 11:08:54 25° WNW visible
12 Dec ? 08:57:06 10° WNW 09:03:20 68° N 09:06:44 32° E visible
12 Dec ? 10:44:15 10° WNW 10:48:06 38° W 10:48:06 38° W visible
13 Dec ? 08:35:06 10° WNW 08:41:11 68° N 08:45:59 21° E visible
13 Dec ? 10:22:13 10° WNW 10:27:22 57° W 10:27:22 57° W visible
14 Dec ? 08:13:08 10° WNW 08:19:03 68° N 08:25:20 12° E visible
14 Dec ? 10:00:11 10° WNW 10:06:39 76° SSW 10:06:43 76° SSW visible
14 Dec ? 11:47:54 10° W 11:48:07 11° W 11:48:07 11° W visible
15 Dec ? 07:51:11 10° WNW 07:56:56 67° N 08:03:38 10° E visible
15 Dec ? 09:38:10 10° WNW 09:44:28 75° SSW 09:46:12 52° SE visible
15 Dec ? 11:25:50 10° W 11:27:36 17° W 11:27:36 17° W visible
16 Dec ? 09:16:09 10° WNW 09:22:18 74° SSW 09:25:49 31° SE visible
16 Dec ? 11:03:49 10° W 11:07:14 24° WSW 11:07:14 24° WSW visible
17 Dec ? 08:54:10 10° WNW 09:00:09 72° SSW 09:05:39 16° ESE visible
17 Dec ? 10:41:48 10° W 10:47:05 27° SW 10:47:05 27° SW visible
18 Dec ? 08:32:10 10° WNW 08:37:59 71° SSW 08:44:44 10° ESE visible
18 Dec ? 10:19:49 10° W 10:24:58 26° SW 10:27:11 22° S visible
19 Dec ? 08:10:12 10° WNW 08:15:50 69° SSW 08:22:26 10° ESE visible
19 Dec ? 09:57:51 10° W 10:02:48 25° SW 10:07:38 12° SSE visible
